This demonstration page uses our WeatherBlox Daily Observations layout. Learn more.

Left ArrowRight Arrow

40.92945, -100.16068

Hourly Observations for April 25, 2015

Temp ( °F °C ) Dew Point ( °F °C ) Humidity (%) Winds ( mph kmh ) Pressure ( in mb ) Visibility ( mi km ) Precip ( " mm )
12:15 am 00:15 Partly Cloudy with Nearby Thunderstorms 56 13.3 53 11.4 88 88 N N/A 29.50 999 10 16 N/A
12:35 am 00:35 Mostly Cloudy 55 13 52 11.2 89 89 W 5 7 29.50 999 10 16 N/A
12:55 am 00:55 Cloudy with Mist and Fog 57 13.7 55 12.5 93 93 WSW 10 17 29.50 999 4 6 N/A
1:15 am 01:15 Mostly Cloudy with Light Rain 56 13.6 54 12.4 93 93 NNW 3 6 29.50 999 7 11 N/A
1:35 am 01:35 Partly Cloudy 56 13.5 53 11.7 89 89 NW 5 7 29.50 999 10 16 N/A
1:55 am 01:55 Clear 56 13.4 51 10.5 83 83 N 5 7 29.50 999 10 16 N/A
2:15 am 02:15 Clear 55 13 51 10.5 85 85 NNE 7 11 29.47 998 10 16 N/A
2:35 am 02:35 Clear with Mist and Fog 55 12.6 52 11.2 91 91 ENE 6 9 29.47 998 4 6 N/A
2:55 am 02:55 Clear with Mist and Fog 54 12.2 52 11.1 93 93 ENE 5 7 29.47 998 4 6 N/A
3:15 am 03:15 Partly Cloudy with Mist and Fog 53 11.8 51 10.8 94 94 N N/A 29.47 998 3 5 N/A
3:35 am 03:35 Mostly Cloudy with Mist and Fog 52 11.3 51 10.3 94 94 N 5 7 29.50 999 1 2 N/A
3:55 am 03:55 Mostly Cloudy with Mist and Fog 51 10.4 49 9.6 95 95 WNW 7 11 29.53 1000 1 2 N/A
4:15 am 04:15 Clear with Mist and Fog 50 10.1 49 9.3 95 95 NNW 3 6 29.53 1000 3 5 N/A
4:35 am 04:35 Clear with Mist and Fog 51 10.3 49 9.6 95 95 W 8 13 29.53 1000 4 6 N/A
4:55 am 04:55 Clear 51 10.3 49 9.6 95 95 WNW 8 13 29.53 1000 7 11 N/A
5:15 am 05:15 Partly Cloudy 52 10.9 50 10.1 95 95 WNW 13 20 29.56 1001 10 16 N/A
5:35 am 05:35 Mostly Cloudy 53 11.4 51 10.3 93 93 NW 14 22 29.56 1001 10 16 N/A
5:55 am 05:55 Cloudy 53 11.5 50 10.1 91 91 NW 13 20 29.56 1001 10 16 N/A
6:15 am 06:15 Cloudy 53 11.4 50 10 91 91 NW 10 17 29.56 1001 10 16 N/A
6:35 am 06:35 Cloudy 52 11.1 49 9.6 91 91 NW 12 19 29.56 1001 10 16 N/A
6:55 am 06:55 Mostly Cloudy 51 10.8 49 9.2 90 90 NW 13 20 29.56 1001 10 16 N/A
7:15 am 07:15 Partly Cloudy 50 10.2 48 8.8 91 91 NNW 12 19 29.56 1001 10 16 N/A
7:35 am 07:35 Mostly Cloudy 51 10.6 49 9.2 91 91 N 10 17 29.59 1002 10 16 N/A
7:55 am 07:55 Partly Cloudy 51 10.7 49 9.2 91 91 N 9 15 29.59 1002 10 16 N/A
8:15 am 08:15 Partly Cloudy 53 11.6 50 9.9 89 89 N 12 19 29.62 1003 10 16 N/A
8:35 am 08:35 Mostly Cloudy 54 12.3 51 10.5 89 89 NNW 12 19 29.62 1003 10 16 N/A
8:55 am 08:55 Cloudy 56 13.1 52 11 87 87 N 8 13 29.65 1004 10 16 N/A
9:15 am 09:15 Cloudy 57 13.8 52 11.2 84 84 N 13 20 29.62 1003 10 16 N/A
9:35 am 09:35 Cloudy 58 14.3 52 11.1 81 81 N 14 22 29.62 1003 10 16 N/A
9:55 am 09:55 Partly Cloudy 58 14.7 53 11.6 82 82 N 15 24 29.62 1003 10 16 N/A
10:15 am 10:15 Sunny 59 14.8 53 11.4 80 80 N 13 20 29.62 1003 10 16 N/A
10:35 am 10:35 Partly Cloudy 60 15.6 53 11.4 76 76 N 10 17 29.62 1003 10 16 N/A
10:55 am 10:55 Partly Cloudy 61 16 52 11.1 73 73 N 12 19 29.62 1003 10 16 N/A
11:15 am 11:15 Partly Cloudy 62 16.5 51 10.8 69 69 N 10 17 29.62 1003 10 16 N/A
11:35 am 11:35 Partly Cloudy 62 16.7 52 11 69 69 NNE 9 15 29.62 1003 10 16 N/A
11:55 am 11:55 Partly Cloudy 63 17.1 52 11.2 68 68 NNE 14 22 29.62 1003 10 16 N/A
12:15 pm 12:15 Mostly Cloudy 64 17.5 52 11.3 67 67 NNE 12 19 29.62 1003 10 16 N/A
12:35 pm 12:35 Mostly Cloudy 63 17 53 11.8 72 72 NNE 13 20 29.62 1003 10 16 N/A
12:55 pm 12:55 Partly Cloudy 63 17.2 53 11.7 70 70 NNE 12 19 29.62 1003 10 16 N/A
1:15 pm 13:15 Partly Cloudy 63 17.4 53 11.8 70 70 NE 12 19 29.62 1003 10 16 N/A
1:35 pm 13:35 Mostly Cloudy 63 17.2 53 11.5 69 69 NE 9 15 29.62 1003 10 16 N/A
1:55 pm 13:55 Mostly Cloudy 62 16.7 51 10.8 68 68 NE 12 19 29.62 1003 10 16 N/A
2:15 pm 14:15 Cloudy 61 16 52 11.1 73 73 NE 16 26 29.65 1004 10 16 N/A
2:35 pm 14:35 Cloudy 60 15.8 52 11.3 75 75 NE 15 24 29.65 1004 10 16 N/A
2:55 pm 14:55 Cloudy 59 15.1 52 11.3 78 78 ENE 10 17 29.65 1004 10 16 N/A
3:15 pm 15:15 Cloudy 59 15.1 52 11 77 77 ENE 14 22 29.65 1004 10 16 N/A
3:35 pm 15:35 Cloudy 58 14.3 52 10.9 80 80 ENE 12 19 29.68 1005 10 16 N/A
3:55 pm 15:55 Cloudy 58 14.2 51 10.6 79 79 ENE 14 22 29.68 1005 10 16 N/A
4:15 pm 16:15 Cloudy 58 14.2 51 10.5 79 79 E 12 19 29.68 1005 10 16 N/A
4:35 pm 16:35 Cloudy 58 14.2 51 10.4 78 78 ENE 13 20 29.68 1005 10 16 N/A
4:55 pm 16:55 Cloudy 58 14.4 51 10.3 77 77 ENE 15 24 29.68 1005 10 16 N/A
5:15 pm 17:15 Cloudy 58 14.5 51 10.5 77 77 ENE 15 24 29.68 1005 10 16 N/A
5:35 pm 17:35 Mostly Cloudy 59 14.9 51 10.6 76 76 ENE 15 24 29.68 1005 10 16 N/A
5:55 pm 17:55 Mostly Cloudy 59 15 51 10.4 74 74 ENE 15 24 29.68 1005 10 16 N/A
6:15 pm 18:15 Partly Cloudy 58 14.6 50 10 74 74 ENE 14 22 29.68 1005 10 16 N/A
6:35 pm 18:35 Sunny 58 14.2 50 9.9 76 76 ENE 17 28 29.68 1005 10 16 N/A
6:55 pm 18:55 Sunny 56 13.5 49 9.5 77 77 ENE 15 24 29.74 1007 10 16 N/A
7:15 pm 19:15 Partly Cloudy 55 12.9 48 9.1 78 78 ENE 14 22 29.74 1007 10 16 N/A
7:35 pm 19:35 Mostly Cloudy 54 12.1 48 9 82 82 ENE 13 20 29.74 1007 10 16 N/A
7:55 pm 19:55 Cloudy 53 11.5 48 8.7 83 83 ENE 14 22 29.74 1007 10 16 N/A
8:15 pm 20:15 Cloudy 52 11 47 8.5 85 85 ENE 14 22 29.80 1009 10 16 N/A
8:35 pm 20:35 Cloudy 51 10.6 47 8.5 87 87 E 13 20 29.80 1009 10 16 N/A
8:55 pm 20:55 Cloudy 51 10.6 47 8.6 88 88 E 12 19 29.80 1009 10 16 N/A
9:15 pm 21:15 Cloudy 51 10.7 47 8.5 86 86 E 13 20 29.83 1010 10 16 N/A
9:35 pm 21:35 Cloudy 51 10.8 47 8.5 86 86 E 14 22 29.83 1010 10 16 N/A
9:55 pm 21:55 Cloudy 51 10.6 47 8.4 86 86 E 13 20 29.83 1010 7 11 N/A
10:15 pm 22:15 Cloudy 51 10.5 47 8.1 85 85 E 18 30 29.83 1010 10 16 N/A
10:35 pm 22:35 Cloudy 50 10.2 46 7.7 85 85 E 17 28 29.83 1010 10 16 N/A
10:55 pm 22:55 Cloudy 51 10.3 46 7.7 84 84 E 12 19 29.85 1011 10 16 N/A
11:15 pm 23:15 Cloudy 50 10 46 7.6 85 85 E 15 24 29.85 1011 10 16 N/A
11:35 pm 23:35 Cloudy 50 9.9 46 7.7 86 86 E 13 20 29.85 1011 7 11 N/A
11:55 pm 23:55 Cloudy 49 9.5 46 7.5 87 87 E 15 24 29.88 1012 7 11 N/A

Powered by AerisWeather